星链-31919 (STARLINK-31919 )

导读 | 星芒AI

STARLINK-31919 是 SpaceX Starlink 项目中的一颗低轨通信卫星,属于第三代 Starlink 卫星(v1.5 或 v2 型号)。该卫星于 2023 年发射,部署在约 550 公里的轨道高度,用于提供全球高速互联网服务。它采用先进的推进系统和激光通信技术,提高网络效率和稳定性。作为 Starlink 卫星群的一部分,STARLINK-31919 支持偏远地区的宽带接入,并增强整个星座的冗余与覆盖能力。

基本信息
目录编号:
59880
目录名称:
STARLINK-31919
国际标识:
2024-098Y
轨道中心:
EARTH
卫星名称:
星链-31919
卫星全名:
星链-31919 (STARLINK-31919 )
卫星状态:
在轨 (已飞行528 天)
发射日期:
2024-05-24 UTC
国别 :
美国 (US)
星等 :
--
轨道信息
数据来源 国际轨道数据
星历时间: 2025-11-02T16:51:08+0800
19小时前
查看轨道信息
半长轴: 6861.189km
偏心率: 0.0000759
轨道倾角: 43.004°
近地点辐角 261.362°
升交点赤经 277.073°
平近点角 98.715°
近地点: 482.533km
远地点: 483.575km
周期: 94.267分钟
每日圈数: 15.275793
详细信息
固有亮度:
5
最大亮度:
1.5
卫星平台:
Starlink v2.0 mini
覆盖范围:
全球
运营商:
太空探索技术公司
运营商所在国:
美国
制造商(研发单位):
太空探索技术公司
制造商所在国:
美国
使用方式:
暂无
卫星简介
星链(Starlink)计划是由太空探索技术公司(SpaceX)提出的一个巨型低轨卫星互联网星座项目,计划在2019年至2024年间在太空搭建由约1.2万颗卫星组成的“星链”网络,其中1584颗将部署在地球上空550千米处的近地轨道,并从2020年开始工作。该卫星仍在工作。
2D轨道图
3D轨道图
轨道高度分析图
轨道倾角分析图
轨道综合分析图
查看轨道综合分析图